Fairbanks, AK

1:29 PM AKST on February 12, 2016 (GMT -0900)
Fairbanks International | | Change Station
CLOSE
Current Station
Airport
Location: Fairbanks,
Elevation: 433 ft
Nearby Weather Stations

Elev 433 ft 64.80 °N, 147.88 °W | Updated 36 minutes ago

Scattered Clouds
Scattered Clouds
9 °F
Feels Like 9 °F
N
0
Wind Variable Wind from North

Today
High -- | Low -- °F
--% Chance of Precip.
Yesterday
High -- | Low -- °F
Precip. -- in
Pressure 29.51 in
Visibility 10.0 miles
Clouds Few 10000 ft
Scattered Clouds 18000 ft
Dew Point 2 °F
Humidity 73%
Rainfall 0.00 in
Snow Depth Not available.
9:01 AM 5:11 PM
Waxing Crescent, 24% visible
METAR PAFA 122153Z 00000KT 10SM FEW100 SCT180 M13/M17 A2946 RMK AO2 SLP991 T11281167
Pressure 29.51 in
Visibility 10.0 miles
Clouds Few 10000 ft
Scattered Clouds 18000 ft
Dew Point 2 °F
Humidity 73%
Rainfall 0.00 in
Snow Depth Not available.
9:01 AM 5:11 PM
Waxing Crescent, 24% visible
METAR PAFA 122153Z 00000KT 10SM FEW100 SCT180 M13/M17 A2946 RMK AO2 SLP991 T11281167

10-Day Weather Forecast

Almanac

Astronomy

Feb. 12, 2016 Rise Set
Actual Time
Civil Twilight
Nautical Twilight
Astronomical Twilight
Moon
Length of Visible Light
Length of Day
Tomorrow will be .
, % of the Moon is Illuminated

Today's Extremes

State Highs State Lows

Community

WunderPhotos

Upload Photos

1,892,421 photos uploaded!

WunderBlog® & News

Nearby

Air Quality

  Air Quality AQ Index Pollutant
Not available.

Snow Depth

Station Depth Elevation

Earthquake Activity

City Distance Mag. Time & Date
Minimum magnitude displayed is 2.5.

Coastal Water Temperatures

Place Temperature

Stations

Nearby Weather Stations

Station Location Temp. Windchill Dew Point Humidity Wind Precip. Elev Updated Type
                   

Watches & Warnings

There are currently no watches in effect.